TimeCDT,TemperatureF,Dew PointF,Humidity,Sea Level PressureIn,VisibilityMPH,Wind Direction,Wind SpeedMPH,Gust SpeedMPH,PrecipitationIn,Events,Conditions,WindDirDegrees,DateUTC
12:52 AM,81.0,71.1,72,30.01,10.0,Calm,Calm,-,N/A,,Clear,0,2013-07-03 05:52:00
1:52 AM,80.1,72.0,76,30.01,10.0,West,4.6,-,N/A,,Clear,280,2013-07-03 06:52:00
2:52 AM,80.1,71.1,74,30.00,10.0,West,4.6,-,N/A,,Clear,270,2013-07-03 07:52:00
3:52 AM,80.1,70.0,71,29.99,10.0,NNW,3.5,-,N/A,,Clear,340,2013-07-03 08:52:00
4:52 AM,80.1,69.1,69,29.99,10.0,NNW,5.8,-,N/A,,Clear,330,2013-07-03 09:52:00
5:52 AM,80.1,69.1,69,29.99,10.0,North,5.8,-,N/A,,Clear,350,2013-07-03 10:52:00
6:52 AM,79.0,72.0,79,29.99,10.0,NE,6.9,-,N/A,,Clear,40,2013-07-03 11:52:00
7:52 AM,81.0,71.1,72,30.01,10.0,NNE,8.1,-,N/A,,Clear,20,2013-07-03 12:52:00
8:52 AM,82.9,71.1,67,30.02,10.0,North,10.4,-,N/A,,Clear,10,2013-07-03 13:52:00
9:52 AM,86.0,69.1,57,30.02,10.0,North,10.4,-,N/A,,Clear,10,2013-07-03 14:52:00
10:52 AM,89.1,66.0,46,30.03,10.0,North,9.2,-,N/A,,Clear,10,2013-07-03 15:52:00
11:52 AM,90.0,66.9,46,30.02,10.0,North,8.1,-,N/A,,Clear,10,2013-07-03 16:52:00
12:52 PM,89.1,70.0,53,30.01,10.0,ESE,12.7,-,N/A,,Clear,120,2013-07-03 17:52:00
1:52 PM,90.0,70.0,52,29.99,10.0,SE,12.7,-,N/A,,Clear,130,2013-07-03 18:52:00
2:52 PM,88.0,71.1,57,29.99,10.0,ESE,11.5,-,N/A,,Clear,110,2013-07-03 19:52:00
3:52 PM,90.0,68.0,48,29.96,10.0,ESE,10.4,-,N/A,,Clear,110,2013-07-03 20:52:00
4:52 PM,89.1,68.0,50,29.95,10.0,ESE,12.7,-,N/A,,Clear,120,2013-07-03 21:52:00
5:52 PM,88.0,69.1,53,29.93,10.0,ESE,10.4,-,N/A,,Clear,120,2013-07-03 22:52:00
6:52 PM,86.0,66.9,53,29.93,10.0,ESE,10.4,-,N/A,,Clear,110,2013-07-03 23:52:00
7:52 PM,84.9,69.1,59,29.93,10.0,SE,10.4,-,N/A,,Clear,130,2013-07-04 00:52:00
8:52 PM,82.9,69.1,63,29.94,10.0,SE,6.9,-,N/A,,Clear,130,2013-07-04 01:52:00
9:52 PM,82.0,70.0,67,29.95,10.0,SE,5.8,-,N/A,,Clear,140,2013-07-04 02:52:00
10:52 PM,82.0,70.0,67,29.96,10.0,SE,4.6,-,N/A,,Clear,140,2013-07-04 03:52:00
11:52 PM,81.0,71.1,72,29.97,10.0,South,3.5,-,N/A,,Clear,170,2013-07-04 04:52:00